{"data":{"norad_id":69680,"intl_designator":"2026-145D","name":"STARLINK-37994","alt_names":[],"object_type":"PAYLOAD","status":"ACTIVE","operator":null,"country":"US","launch_date":"2026-06-25","launch_site_code":"AFWTR","launch_vehicle":null,"mission":null,"orbit_class":"UNKNOWN","rcs_meters":null,"size_class":null,"mass_kg":null,"dimensions":null,"purposes":["comms"],"wikipedia_slug":null,"has_3d_model":false,"image_url":null,"decayed_at":null,"tle_current":{"epoch":"2026-09-20T00:05:10.933728Z","epoch_age_seconds":64554,"freshness":"FRESH","line1":"1 69680U 26145D   26263.00359877  .00011289  00000+0  35149-3 0  9990","line2":"2 69680  97.2866 109.6216 0001601  95.8442 264.2984 15.33443756 13464","mean_motion":15.33443756,"eccentricity":0.0001601,"inclination_deg":97.2866,"raan_deg":109.6216,"arg_perigee_deg":95.8442,"mean_anomaly_deg":264.2984,"bstar":0.00035149,"rev_number":1346,"period_min":93.906280837861,"perigee_km":464.4512019609,"apogee_km":466.64254953791,"semimajor_km":6843.6838757494,"source":"CELESTRAK","updated_at":"2026-09-20T09:00:44.252480Z"}}}